When you browse on this site, cookies collect data to enhance your experience and personalize the content and advertising you see.
Visit our Privacy Policy to learn more. By continuing to use the site, you agree to this use of cookies and data.
  • In Latvia
  • List of Countries
  • For 7 days
  • Water Temperature
  • Satellite Maps
  • Weather Map
  • Weather Widgets
  • user-avatar
    Login

    Hourly Weather Pocholaje

    Today, 19 July, Friday

    Time Temperature Precipitation Wind Pressure Humidity
    00:00 +14°C° 0 mm 1 mps 744 mmHg 77%
    01:00 +14°C° 0 mm 1 mps 744 mmHg 80%
    02:00 +14°C° 0 mm 1 mps 744 mmHg 82%
    03:00 +13°C° 0 mm 1 mps 745 mmHg 83%
    04:00 +13°C° 0 mm 1 mps 745 mmHg 84%
    05:00 +13°C° 0 mm 1 mps 745 mmHg 86%
    06:00 +15°C° 0 mm 1 mps 745 mmHg 80%
    07:00 +18°C° 0 mm 1 mps 745 mmHg 74%
    08:00 +20°C° 0 mm 1 mps 745 mmHg 68%
    09:00 +22°C° 0 mm 1 mps 745 mmHg 63%
    10:00 +23°C° 0 mm 1 mps 745 mmHg 57%
    11:00 +25°C° 0 mm 1 mps 745 mmHg 51%
    12:00 +25°C° 0 mm 1 mps 745 mmHg 50%
    13:00 +26°C° 0 mm 1 mps 745 mmHg 49%
    14:00 +26°C° 0 mm 1 mps 745 mmHg 48%
    15:00 +26°C° 0 mm 1 mps 745 mmHg 50%
    16:00 +26°C° 0 mm 1 mps 745 mmHg 52%
    17:00 +26°C° 0 mm 1 mps 745 mmHg 55%
    18:00 +24°C° 0.2 mm 1 mps 745 mmHg 61%
    19:00 +23°C° 0.2 mm 1 mps 745 mmHg 68%
    20:00 +20°C° 0.2 mm 2 mps 745 mmHg 75%
    21:00 +19°C° 0 mm 2 mps 745 mmHg 78%
    22:00 +18°C° 0 mm 2 mps 745 mmHg 81%
    23:00 +17°C° 0 mm 2 mps 746 mmHg 85%

    Tomorrow, 20 July, Saturday

    Time Temperature Precipitation Wind Pressure Humidity
    00:00 +17°C° 0.1 mm 2 mps 746 mmHg 86%
    01:00 +17°C° 0.1 mm 2 mps 746 mmHg 87%
    02:00 +17°C° 0.1 mm 2 mps 746 mmHg 88%
    03:00 +18°C° 0.3 mm 1 mps 746 mmHg 91%
    04:00 +18°C° 0.3 mm 1 mps 746 mmHg 93%
    05:00 +16°C° 0.3 mm 0 mps 746 mmHg 96%
    06:00 +18°C° 0 mm 1 mps 746 mmHg 94%
    07:00 +19°C° 0 mm 1 mps 746 mmHg 92%
    08:00 +19°C° 0 mm 2 mps 746 mmHg 90%
    09:00 +20°C° 0.1 mm 2 mps 747 mmHg 83%
    10:00 +23°C° 0.1 mm 2 mps 747 mmHg 77%
    11:00 +24°C° 0.1 mm 2 mps 747 mmHg 70%
    12:00 +25°C° 0.6 mm 2 mps 747 mmHg 68%
    13:00 +26°C° 0.6 mm 3 mps 746 mmHg 65%
    14:00 +27°C° 0.6 mm 3 mps 746 mmHg 63%
    15:00 +27°C° 0.4 mm 3 mps 746 mmHg 63%
    16:00 +27°C° 0.4 mm 3 mps 746 mmHg 64%
    17:00 +27°C° 0.4 mm 3 mps 746 mmHg 64%
    18:00 +26°C° 0.2 mm 2 mps 746 mmHg 70%
    19:00 +24°C° 0.2 mm 2 mps 746 mmHg 77%
    20:00 +23°C° 0.2 mm 2 mps 746 mmHg 83%
    21:00 +21°C° 0 mm 2 mps 746 mmHg 84%
    22:00 +21°C° 0 mm 1 mps 747 mmHg 85%
    23:00 +20°C° 0 mm 1 mps 747 mmHg 86%

    Day after tomorrow, 21 July, Sunday

    Time Temperature Precipitation Wind Pressure Humidity
    00:00 +20°C° 0 mm 1 mps 747 mmHg 87%
    01:00 +20°C° 0 mm 1 mps 747 mmHg 88%
    02:00 +19°C° 0 mm 1 mps 747 mmHg 88%
    03:00 +19°C° 0 mm 1 mps 747 mmHg 88%
    04:00 +19°C° 0 mm 1 mps 747 mmHg 88%
    05:00 +19°C° 0 mm 1 mps 747 mmHg 88%
    06:00 +20°C° 0 mm 1 mps 747 mmHg 84%
    07:00 +22°C° 0 mm 1 mps 747 mmHg 79%
    08:00 +24°C° 0 mm 1 mps 747 mmHg 75%
    09:00 +25°C° 0 mm 2 mps 747 mmHg 70%
    10:00 +27°C° 0 mm 2 mps 747 mmHg 65%
    11:00 +29°C° 0 mm 2 mps 747 mmHg 60%
    12:00 +29°C° 0 mm 3 mps 747 mmHg 57%
    13:00 +30°C° 0 mm 3 mps 746 mmHg 55%
    14:00 +32°C° 0 mm 4 mps 746 mmHg 52%
    15:00 +30°C° 0.4 mm 5 mps 746 mmHg 56%
    16:00 +29°C° 0.4 mm 7 mps 746 mmHg 61%
    17:00 +28°C° 0.4 mm 8 mps 746 mmHg 65%
    18:00 +26°C° 2.9 mm 6 mps 746 mmHg 74%
    19:00 +22°C° 2.9 mm 4 mps 746 mmHg 82%
    20:00 +20°C° 2.9 mm 2 mps 746 mmHg 91%
    21:00 +20°C° 0.3 mm 2 mps 747 mmHg 91%
    22:00 +20°C° 0.3 mm 1 mps 747 mmHg 91%
    23:00 +20°C° 0.3 mm 1 mps 747 mmHg 91%

    22 July, Monday

    Time Temperature Precipitation Wind Pressure Humidity
    00:00 +19°C° 0.8 mm 2 mps 747 mmHg 92%
    01:00 +18°C° 0.8 mm 2 mps 747 mmHg 94%
    02:00 +18°C° 0.8 mm 3 mps 747 mmHg 96%
    03:00 +18°C° 0 mm 3 mps 747 mmHg 96%
    04:00 +18°C° 0 mm 4 mps 747 mmHg 96%
    05:00 +18°C° 0 mm 4 mps 747 mmHg 96%
    06:00 +18°C° 0 mm 4 mps 748 mmHg 94%
    07:00 +19°C° 0 mm 5 mps 748 mmHg 91%
    08:00 +20°C° 0 mm 5 mps 748 mmHg 89%
    09:00 +21°C° 0.1 mm 5 mps 748 mmHg 84%
    10:00 +21°C° 0.1 mm 5 mps 749 mmHg 79%
    11:00 +22°C° 0.1 mm 5 mps 749 mmHg 73%
    12:00 +23°C° 0.1 mm 5 mps 749 mmHg 70%
    13:00 +25°C° 0.1 mm 5 mps 749 mmHg 67%
    14:00 +26°C° 0.1 mm 6 mps 749 mmHg 64%
    15:00 +24°C° 0.1 mm 6 mps 748 mmHg 63%
    16:00 +24°C° 0.1 mm 6 mps 748 mmHg 63%
    17:00 +24°C° 0.1 mm 6 mps 748 mmHg 63%
    18:00 +23°C° 0 mm 5 mps 748 mmHg 68%
    19:00 +21°C° 0 mm 4 mps 748 mmHg 73%
    20:00 +20°C° 0 mm 3 mps 748 mmHg 78%
    21:00 +19°C° 0 mm 3 mps 748 mmHg 77%
    22:00 +19°C° 0 mm 3 mps 749 mmHg 76%
    23:00 +19°C° 0 mm 3 mps 749 mmHg 75%

    23 July, Tuesday

    Time Temperature Precipitation Wind Pressure Humidity
    00:00 +18°C° 0 mm 3 mps 749 mmHg 78%
    01:00 +17°C° 0 mm 3 mps 749 mmHg 80%
    02:00 +17°C° 0 mm 3 mps 748 mmHg 83%
    03:00 +16°C° 0 mm 3 mps 748 mmHg 84%
    04:00 +16°C° 0 mm 3 mps 748 mmHg 85%
    05:00 +14°C° 0 mm 3 mps 748 mmHg 87%
    06:00 +15°C° 0 mm 4 mps 748 mmHg 84%
    07:00 +17°C° 0 mm 4 mps 748 mmHg 81%
    08:00 +18°C° 0 mm 4 mps 748 mmHg 78%
    09:00 +19°C° 0 mm 5 mps 748 mmHg 73%
    10:00 +20°C° 0 mm 5 mps 748 mmHg 68%
    11:00 +21°C° 0 mm 5 mps 748 mmHg 63%
    12:00 +22°C° 0.2 mm 5 mps 748 mmHg 62%
    13:00 +23°C° 0.2 mm 6 mps 748 mmHg 62%
    14:00 +24°C° 0.2 mm 6 mps 748 mmHg 61%
    15:00 +23°C° 0.3 mm 6 mps 747 mmHg 63%
    16:00 +23°C° 0.3 mm 6 mps 747 mmHg 65%
    17:00 +23°C° 0.3 mm 6 mps 747 mmHg 67%
    18:00 +22°C° 0.1 mm 5 mps 747 mmHg 72%
    19:00 +21°C° 0.1 mm 4 mps 747 mmHg 77%
    20:00 +19°C° 0.1 mm 3 mps 747 mmHg 82%
    21:00 +19°C° 0.1 mm 3 mps 747 mmHg 85%
    22:00 +18°C° 0.1 mm 3 mps 747 mmHg 87%
    23:00 +18°C° 0.1 mm 3 mps 748 mmHg 90%

    24 July, Wednesday

    Time Temperature Precipitation Wind Pressure Humidity
    00:00 +17°C° 0.2 mm 3 mps 748 mmHg 92%
    01:00 +17°C° 0.2 mm 3 mps 748 mmHg 94%
    02:00 +16°C° 0.2 mm 3 mps 748 mmHg 97%
    03:00 +16°C° 0 mm 2 mps 747 mmHg 97%
    04:00 +16°C° 0 mm 2 mps 747 mmHg 97%
    05:00 +15°C° 0 mm 2 mps 747 mmHg 98%
    06:00 +17°C° 0 mm 2 mps 748 mmHg 94%
    07:00 +18°C° 0 mm 3 mps 748 mmHg 91%
    08:00 +19°C° 0 mm 3 mps 748 mmHg 88%
    09:00 +21°C° 0.3 mm 3 mps 748 mmHg 80%
    10:00 +22°C° 0.3 mm 3 mps 748 mmHg 72%
    11:00 +24°C° 0.3 mm 3 mps 748 mmHg 65%
    12:00 +25°C° 0.1 mm 4 mps 748 mmHg 61%
    13:00 +26°C° 0.1 mm 4 mps 748 mmHg 58%
    14:00 +26°C° 0.1 mm 4 mps 748 mmHg 54%
    15:00 +26°C° 0.1 mm 4 mps 748 mmHg 57%
    16:00 +26°C° 0.1 mm 4 mps 748 mmHg 59%
    17:00 +25°C° 0.1 mm 4 mps 748 mmHg 62%
    18:00 +23°C° 0 mm 4 mps 748 mmHg 66%
    19:00 +21°C° 0 mm 3 mps 748 mmHg 71%
    20:00 +20°C° 0 mm 3 mps 748 mmHg 76%
    21:00 +19°C° 0 mm 2 mps 748 mmHg 78%
    22:00 +18°C° 0 mm 2 mps 749 mmHg 81%
    23:00 +17°C° 0 mm 2 mps 749 mmHg 83%
    Show more